Regional Weather Roundup
Issued by NWS

Home | Current Version | Previous Version | Text Only | Print | Product List | Glossary Off
Versions: 1 2 3 4 5 6 7 8 9 10 11 12 13 14 15 16 17 18 19 20 21 22 23 24 25 26 27 28 29 30 31 32 33 34 35 36 37 38 39 40 41 42 43 44 45 46 47 48 49 50

710
ASUS45 KPSR 140310
RWRAZ

ARIZONA HOURLY REGIONAL WEATHER ROUNDUP
NATIONAL WEATHER SERVICE PHOENIX AZ
800 PM MST SAT FEB 13 2016

NOTE: FAIR INDICATES FEW OR NO CLOUDS BELOW 12,000 FEET WITH NO
SIGNIFICANT WEATHER AND/OR OBSTRUCTIONS TO VISIBILITY.

AZZ001>003-036-140400-
NORTHWEST ARIZONA

CITY           SKY/WX    TMP DP  RH WIND       PRES   REMARKS
BULLHEAD CITY  CLEAR     72  25  17 NE8       30.04R
KINGMAN        CLEAR     50  18  28 E8        30.14R
$$

AZZ004>008-015-016-018-140400-
NORTH CENTRAL ARIZONA

CITY           SKY/WX    TMP DP  RH WIND       PRES   REMARKS
GRAND CANYON   MOCLDY    35  22  58 NE3       30.25R
WILLIAMS       PTCLDY    39  18  41 S7        30.29S WCI  34
PRESCOTT       CLEAR     56  20  24 SE8       30.16R
FLAGSTAFF      MOCLDY    37  17  44 CALM      30.25R
PAYSON         CLEAR     55  21  26 CALM      30.17S
PAGE           CLOUDY    51  33  50 CALM      30.16F
$$

AZZ009>014-017-140400-
NORTHEAST ARIZONA

CITY           SKY/WX    TMP DP  RH WIND       PRES   REMARKS
WINSLOW        MOCLDY    47  16  29 CALM      30.15R
SAINT JOHNS    MOCLDY    43   9  24 S5        30.16R
WINDOW ROCK    PTCLDY    43   0  16 CALM      30.22S
SHOW LOW       MOCLDY    45  14  29 CALM      30.23R
$$

AZZ023-140400-
GREATER PHOENIX AREA

CITY           SKY/WX    TMP DP  RH WIND       PRES   REMARKS
PHOENIX        PTCLDY    76  29  17 W6        29.96R
BUCKEYE        PTCLDY    64  32  29 NW6       29.99S
LUKE AFB       PTCLDY    67  38  33 CALM      29.95S
DEER VALLEY    PTCLDY    67  26  21 CALM      29.97F
SCOTTSDALE     PTCLDY    70  26  19 CALM      29.99S
MESA-FALCON    PTCLDY   N/A N/A N/A VRB6      29.97S
MESA-GATEWAY   CLEAR     66  27  22 CALM      29.99R
CHANDLER       PTCLDY    72  27  18 W7        29.97S
$$

AZZ027-028-140400-
SOUTHWEST MARICOPA COUNTY AND PINAL COUNTY

CITY           SKY/WX    TMP DP  RH WIND       PRES   REMARKS
CASA GRANDE    PTCLDY    61  27  27 CALM      29.99S
GILA BEND      FAIR      64  31  28 SE9       29.95F
$$

AZZ503-504-507>509-140400-
SOUTHEAST ARIZONA

CITY           SKY/WX    TMP DP  RH WIND       PRES   REMARKS
TUCSON         PTCLDY    68  21  16 W5        30.05R
DAVIS-MONTHAN  PTCLDY    69  24  18 NW10      30.03R
RYAN FIELD     CLEAR     64  28  25 W6        30.05R
NOGALES        PTCLDY    64  13  13 NW5       30.09R
SIERRA VISTA   MOCLDY    62  12  14 W14       30.13R
DOUGLAS        PTCLDY    61  15  16 N5        30.08R
SAFFORD        PTCLDY    62  19  19 NW7       30.03R
$$

AZZ020-021-025-026-031-140400-
SOUTHWEST ARIZONA

CITY           SKY/WX    TMP DP  RH WIND       PRES   REMARKS
YUMA           PTCLDY    74  34  23 NW6       29.97R
$$

CAZ031-033-041-043-047-048-061-140400-
SOUTHERN CALIFORNIA

CITY           SKY/WX    TMP DP  RH WIND       PRES   REMARKS
DOWNTOWN L.A.  CLEAR     59  52  77 CALM      30.04R HAZE
L.A. AIRPORT   MOCLDY    55  52  89 W6        30.05R FOG
SAN DIEGO      MOCLDY    61  55  81 NW6       30.06R
BURBANK        CLEAR     67  42  40 CALM      30.04R
ONTARIO        PTCLDY    64  44  48 S5        30.06R
RIVERSIDE      CLEAR     67  40  37 CALM      30.06R
PALM SPRINGS   PTCLDY    75  32  20 VRB3      30.03R
EL CENTRO NAS  MOCLDY    68  23  18 NW3       29.98R
IMPERIAL       MOCLDY    71  34  25 CALM      29.96R
BLYTHE         PTCLDY    68  23  18 NW7       29.99R
NEEDLES        CLEAR     73  24  16 N9        30.04R
$$

NVZ020-UTZ003-140400-
SOUTHERN NEVADA-UTAH

CITY           SKY/WX    TMP DP  RH WIND       PRES   REMARKS
LAS VEGAS      PTCLDY    68  23  18 SW3       30.06S
SALT LAKE CITY FOG       29  29 100 NW3       30.32S VSB 1/8
$$

NMZ009-TXZ055-140400-
NEW MEXICO-WEST TEXAS

CITY           SKY/WX    TMP DP  RH WIND       PRES   REMARKS
ALBUQUERQUE    CLEAR     57  14  18 NW7       30.11S
EL PASO        PTCLDY    62   9  12 VRB3      30.06S
$$


........................KEY........................
SKY/WX - SKY CONDITION/WEATHER
TMP    - TEMPERATURE IN FAHRENHEIT
DP     - DEW POINT IN FAHRENHEIT
RH     - RELATIVE HUMIDITY IN PERCENT
WIND   - DIRECTION AND SPEED IN MILES PER HOUR (MPH)
VRB    - VARIABLE WIND DIRECTION
PRES   - MEAN SEA LEVEL PRESSURE IN INCHES OF MERCURY
         F - FALLING PRESSURE   R - RISING PRESSURE
         S - STEADY PRESSURE
VSB    - VISIBILITY IN MILES
HX     - HEAT INDEX IN FAHRENHEIT
WCI    - WIND CHILL INDEX IN FAHRENHEIT
TC     - TEMPERATURE IN CELSIUS WHICH IS ALSO KNOWN AS
         TEMPERATURE IN CENTIGRADE
AFB    - AIR FORCE BASE
         LUKE AFB IS LUKE AIR FORCE BASE
         DAVIS-MONTHAN IS DAVIS-MONTHAN AIR FORCE BASE
NAS    - NAVAL AIR STATION
         EL CENTRO NAS IS EL CENTRO NAVAL AIR STATION
N/A    - NOT AVAILABLE





USA.gov is the U.S. government's official web portal to all federal, state and local government web resources and services.